Flag for Netherlands Weather past 2 weeks in Oss, Netherlands

Now
34 °F

Passing clouds.


Feels Like: 26 °F
Forecast: 35 / 38 °F
Wind: 9 mph from West

Location: Volkel

Current Time: Jan 30, 2015 at 1:27:08 AM

Latest Report: Jan 30, 2015 at 12:55 AM


Visibility: N/A

Pressure: 28.71 "Hg

Humidity: 93%

Dew point: 32 °F

Location of OssLocation

Historic Weather in Oss — Graph

°F

Oss temperature yesterday

Maximum temperature yesterday: 43 °F (at 1:55 PM)
Minimum temperature yesterday: 34 °F (at 12:55 AM)
Average temperature yesterday: 37 °F

Past Weeks' High & Low Weather Summary

 TemperatureHumidityPressure
High52 °F (Jan 15, 12:55 PM)100% (Jan 17, 12:55 AM)30.39 "Hg (Jan 17, 12:55 AM)
Low27 °F (Jan 17, 8:55 AM)65% (Jan 21, 2:25 PM)28.71 "Hg (Jan 29, 9:59 PM)
Average36 °F88%29.90 "Hg
* Reported Jan 15 12:25 AM — Jan 30 12:25 AM, Oss, Weather by CustomWeather, © 2014

Note: Actual official high and low records may vary slightly from our data, if they occured in-between our weather recording intervals... More about our weather records

Advertising

Oss weather history for previous 24 hours

 ConditionsComfort  
Time TempWeatherWind HumidityBarometerVisibility
12:25 AM
Jan 30
34 °FLight snow. Passing clouds.8 mph93%28.71 "Hg1 mi
11:59 PM
Jan 29
34 °FLight snow. Passing clouds.8 mph93%28.71 "Hg2 mi
11:55 PM34 °FLight snow. Partly cloudy.7 mph93%28.71 "Hg3 mi
11:25 PM34 °FSprinkles. Partly cloudy.8 mph100%28.71 "Hg3 mi
10:55 PM37 °FLight rain. Mostly cloudy.10 mph93%28.71 "Hg6 mi
10:25 PM37 °FDrizzle. Mostly cloudy.7 mph87%28.71 "HgN/A
10:03 PM37 °FLight rain. Mostly cloudy.6 mph87%28.71 "HgN/A
9:59 PM37 °FMostly cloudy.6 mph87%28.71 "HgN/A
9:25 PM37 °FMostly cloudy.8 mph87%28.74 "HgN/A
8:55 PM37 °FMostly cloudy.9 mph87%28.74 "HgN/A
8:25 PM37 °FOvercast.12 mph87%28.77 "HgN/A
7:55 PM39 °FOvercast.15 mph81%28.77 "HgN/A
7:25 PM39 °FMostly cloudy.14 mph81%28.80 "HgN/A
7:02 PM39 °FPartly cloudy.13 mph81%28.80 "HgN/A
6:55 PM37 °FPassing clouds.14 mph87%28.80 "HgN/A
6:25 PM39 °FMostly cloudy.13 mph81%28.82 "HgN/A
5:55 PM39 °FPassing clouds.16 mph75%28.85 "HgN/A
5:25 PM39 °FPartly cloudy.16 mph81%28.85 "HgN/A
4:55 PM39 °FBroken clouds.20 mph81%28.88 "HgN/A
4:25 PM41 °FMore clouds than sun.21 mph76%28.88 "HgN/A
3:55 PM41 °FBroken clouds.17 mph76%28.91 "HgN/A
3:25 PM39 °FDrizzle. Broken clouds.20 mph81%28.94 "HgN/A
2:55 PM41 °FPassing clouds.21 mph76%28.97 "HgN/A
2:25 PM43 °FBroken clouds.22 mph71%29.00 "HgN/A
2:04 PM43 °FBroken clouds.22 mph76%29.00 "HgN/A
1:55 PM43 °FBroken clouds.23 mph71%29.03 "HgN/A
1:25 PM41 °FScattered clouds.24 mph76%29.03 "HgN/A
1:04 PM39 °FBroken clouds.24 mph81%29.06 "HgN/A
12:55 PM41 °FBroken clouds.23 mph70%29.06 "HgN/A
12:25 PM41 °FPartly sunny.23 mph76%29.09 "HgN/A
12:03 PM39 °FBroken clouds.21 mph81%29.12 "HgN/A
11:25 AM39 °FMostly cloudy.18 mph81%29.15 "HgN/A
10:55 AM37 °FMostly cloudy.18 mph87%29.15 "HgN/A
10:25 AM37 °FPartly sunny.20 mph87%29.18 "HgN/A
10:04 AM36 °FLight rain. Mostly cloudy.16 mph93%29.18 "HgN/A
9:55 AM37 °FLight rain. Mostly cloudy.17 mph87%29.21 "HgN/A
9:25 AM37 °FLight rain. Broken clouds.18 mph81%29.21 "HgN/A
8:55 AM36 °FLight rain. Broken clouds.17 mph87%29.21 "Hg4 mi
8:25 AM34 °FLight rain. Broken clouds.20 mph93%29.21 "HgN/A
7:59 AM36 °FLight rain. Partly cloudy.18 mph87%29.24 "HgN/A
7:25 AM36 °FLight rain. Passing clouds.17 mph81%29.24 "HgN/A
6:55 AM36 °FPartly cloudy.18 mph81%29.27 "HgN/A
6:25 AM36 °FPartly cloudy.20 mph81%29.27 "HgN/A
5:55 AM36 °FChilly.21 mph81%29.27 "HgN/A
5:25 AM36 °FPassing clouds.23 mph81%29.30 "HgN/A
4:55 AM36 °FPassing clouds.21 mph75%29.30 "HgN/A
4:25 AM36 °FPassing clouds.22 mph75%29.33 "HgN/A
3:55 AM34 °FOvercast.18 mph81%29.36 "HgN/A
3:25 AM34 °FChilly.20 mph81%29.36 "HgN/A
2:55 AM34 °FChilly.16 mph81%29.39 "HgN/A
2:25 AM34 °FPassing clouds.15 mph81%29.39 "HgN/A
1:55 AM36 °FPassing clouds.15 mph75%29.39 "HgN/A
1:25 AM36 °FPassing clouds.14 mph75%29.42 "HgN/A
Weather by CustomWeather, © 2014

See weather overviewHow to use our weather pages